Regional Weather Roundup
Issued by NWS

Home | Current Version | Previous Version | Text Only | Print | Product List | Glossary Off
Versions: 1 2 3 4 5 6 7 8 9 10 11 12 13 14 15 16 17 18 19 20 21 22 23 24 25 26 27 28

000
ASUS45 KTFX 271910
RWRMT
MONTANA REGIONAL WEATHER ROUNDUP
NATIONAL WEATHER SERVICE GREAT FALLS MT
100 PM MDT TUE JUN 27 2017

NOTE: "FAIR" INDICATES FEW OR NO CLOUDS BELOW 12000 FEET WITH NO
SIGNIFICANT WEATHER AND/OR OBSTRUCTIONS TO VISIBILITY.

MTZ001>007-043-272000-
WEST OF THE DIVIDE

CITY           SKY/WX    TMP DP  RH WIND       PRES   REMARKS
KALISPELL      MOSUNNY   75  54  47 SE8       29.80F
MISSOULA       MOSUNNY   76  53  44 VRB5      29.86F
BUTTE          CLOUDY    66  44  45 NW6       29.97S
MULLAN PASS    MOSUNNY   63  42  46 MISG      30.01R
ANACONDA         N/A     72  45  37 W10G18    29.92F
DEER LODGE       N/A     64  52  63 CALM      29.94F
EUREKA           N/A     75  41  29 CALM      29.78F
HAMILTON         N/A     75  50  41 SE7       29.89S
$$

MTZ008-052>055-272000-
SOUTHWEST MONTANA

CITY           SKY/WX    TMP DP  RH WIND       PRES   REMARKS
BOZEMAN        CLOUDY    68  50  52 W13       29.92R
DILLON         MOSUNNY   69  47  45 W5        29.95F
W YELLOWSTONE  CLOUDY    63  45  51 VRB5G20   30.02R
ENNIS          CLOUDY    66  43  42 N14       30.02R
THREE FORKS      N/A     70  49  47 W8        29.91R
$$

MTZ009-010-012-014-046-048-049-054-272000-
EAST SLOPES AND CENTRAL MONTANA

CITY           SKY/WX    TMP DP  RH WIND       PRES   REMARKS
CUT BANK       PTSUNNY   67  49  52 NW13      29.81R
GREAT FALLS    CLOUDY    76  47  35 S12       29.78S
MALMSTROM AFB  PTSUNNY   74  42  31 CALM      29.77F
HELENA         PTSUNNY   76  50  40 W20G29    29.84F
CHOTEAU          N/A     77  50  38 VRB6G14   29.81S
$$

MTZ011-013-016-021-045-047-050-051-272000-
NORTH CENTRAL MONTANA

CITY           SKY/WX    TMP DP  RH WIND       PRES   REMARKS
HAVRE          CLOUDY    73  54  51 NW22      29.73R
LEWISTOWN      TSTM      65  51  60 CALM      29.80R
N BAR RANCH      N/A     75  45  33 NW17      29.80S
CHINOOK          N/A     75  54  46 W16G26    29.69R
FORT BENTON      N/A    N/A N/A N/A MISG      29.78R
$$

MTZ017>020-022>027-061-062-272000-
NORTHEAST MONTANA

CITY           SKY/WX    TMP DP  RH WIND       PRES   REMARKS
GLASGOW        CLOUDY    80  49  33 NW24      29.61S
JORDAN           N/A     85  47  26 NW17G26   29.64F
SIDNEY         CLOUDY    90  47  22 NW21G26   29.53F
WOLF POINT     CLOUDY    87  49  26 W21G29    29.58R
MALTA          MOSUNNY   82  52  34 W16G24    29.63F
PLENTYWOOD       N/A     82  48  30 W14       29.54F
POPLAR           N/A     84  48  28 W13       29.57R
$$

MTZ028>42-056>058-272000-
SOUTHCENTRAL AND SOUTHEAST MONTANA

CITY           SKY/WX    TMP DP  RH WIND       PRES   REMARKS
BAKER          MOSUNNY   89  43  20 MISG      29.63S
BILLINGS       CLOUDY    82  46  28 NW14G24   29.75F
LIVINGSTON     CLOUDY    68  47  46 W25G38    29.87R THUNDER
MILES CITY     CLOUDY    85  44  23 NW18      29.64S
BIG TIMBER     MOSUNNY   73  45  35 W24       29.85F
ROUNDUP          N/A     84  46  26 SW20      29.67F
$$

REGIONAL REPORTS...DAKOTAS

CITY           SKY/WX    TMP DP  RH WIND       PRES   REMARKS
WILLISTON      MOSUNNY   88  46  23 W8        29.55S
MINOT          SUNNY     83  52  34 S17       29.56F
DICKINSON      MOSUNNY   86  50  28 S14       29.57F
BEACH            N/A     86  45  23 NW9G15    29.63R
CROSBY           N/A     81  50  34 SW10G20   29.56S
TIOGA            N/A     79  50  36 S10G17    29.58F
WATFORD CITY     N/A     84  52  32 SW8G22    29.55S
BISMARCK       MOSUNNY   84  56  38 S21G32    29.62F
GRAND FORKS    MOSUNNY   80  48  32 S23G30    29.73F
FARGO          CLOUDY    76  43  30 S25G33    29.79F
BUFFALO SD       N/A     90  45  21 W24G36    29.56F
RAPID CITY     CLOUDY    84  57  39 VRB3      29.66S
$$

REGIONAL REPORTS...WYOMING/IDAHO/WASHINGTON

CITY           SKY/WX    TMP DP  RH WIND       PRES   REMARKS
GILLETTE       CLOUDY    83  43  24 NW12      29.78S
SHERIDAN       CLOUDY    79  49  34 NW18G29   29.80S
BUFFALO WY     CLOUDY    70  47  43 N10       29.84R
CODY           CLOUDY    62  43  49 W17G36    29.90R HAZE
YELLOWSTONE LA   N/A     49  44  83 CALM      30.13F
IDAHO FALLS    PTSUNNY   72  54  53 S8        29.97F
SALMON         PTSUNNY   73  50  43 NW8       29.90F
BOISE          SUNNY     82  48  30 W10       29.92F
SPOKANE        PTSUNNY   73  49  42 W8        29.90S
$$

REGIONAL REPORTS...ALBERTA

CITY           SKY/WX    TMP DP  RH WIND       PRES   REMARKS
EDMONTON       LGT RAIN  54  46  76 NW15G28   29.71R
CALGARY        MOSUNNY   66  43  42 SE12      29.76F
LETHBRIDGE     PTSUNNY   66  46  48 S6        29.77F
MEDICINE HAT   MOSUNNY   73  48  40 NW7G18    29.71R
WATERTON GATE    N/A     70  50  49 NE7         N/A
MILK RIVER       N/A     66  52  59 N9          N/A
$$

REGIONAL REPORTS...SASKATCHEWAN

CITY           SKY/WX    TMP DP  RH WIND       PRES   REMARKS
SWIFT CURRENT  CLOUDY    63  54  72 NW18G25   29.63R
REGINA         PTSUNNY   82  55  39 W18G24    29.50R
SASKATOON      PTSUNNY   73  55  53 NW23      29.47R
VAL MARIE        N/A     73  55  53 NW17G25     N/A
ROCKGLEN         N/A     66  50  55 NW21G32     N/A
ASSINIBOIA       N/A     61  45  55 W29G38      N/A
$$




USA.gov is the U.S. government's official web portal to all federal, state and local government web resources and services.